Location: Zagreb
(45.8000°N, 16.0000°E)
Time: 03:03:07
(UTC+02:00)

Transit 2A Rocket - Pass Details

Date: 26 January 2022
Orbit: 592 x 909 km, 66.7° (Epoch: 26 May)

Event Time Altitude Azimuth Distance (km) Brightness Sun altitude
Rises 03:59:14 0° 322° (NW) 3,430 - -35.7°
Reaches altitude 10° 04:01:54 10° 316° (NW) 2,446 - -35.2°
Maximum altitude 04:07:09 42° 247° (WSW) 1,112 - -34.3°
Drops below altitude 10° 04:11:57 10° 178° (S) 2,231 - -33.5°
Sets 04:14:18 0° 171° (S) 3,096 - -33.1°
